Location: Crescent
(42.8242°N, 73.7329°W)
Time: 18:18:39
(UTC+00:00)

Vanguard 1 Rocket - Pass Details

Date: 27 February 2026
Orbit: 653 x 4214 km, 34.3° (Epoch: 8 March)

Event Time Altitude Azimuth Distance (km) Brightness Sun altitude
Rises 15:17:25 0° 219° (SW) 3,141 10.4 33.2°
Reaches altitude 10° 15:19:48 10° 205° (SSW) 2,402 10.1 33.4°
Maximum altitude 15:24:22 26° 149° (SSE) 1,935 11.8 33.8°
Drops below altitude 10° 15:31:13 10° 96° (E) 3,727 11.1 34.5°
Sets 15:36:00 0° 87° (E) 5,340 11.6 34.9°
